When you browse on this site, cookies collect data to enhance your experience and personalize the content and advertising you see.
Visit our Privacy Policy to learn more. By continuing to use the site, you agree to this use of cookies and data.
  • In Hungary
  • List of Countries
  • For 7 days
  • Water Temperature
  • Weather Map
  • News
  • Weather Widgets
  • user-avatar
    Login

    Hourly Weather Detkovichi

    Today, 21 August, Wednesday

    Time Temperature Precipitation Wind Pressure Humidity
    00:00 +20°C° 0.2 mm 2 mps 755 mmHg 90%
    01:00 +20°C° 0.2 mm 2 mps 755 mmHg 89%
    02:00 +20°C° 0.2 mm 2 mps 755 mmHg 88%
    03:00 +20°C° 0.1 mm 2 mps 755 mmHg 88%
    04:00 +19°C° 0.1 mm 2 mps 755 mmHg 87%
    05:00 +19°C° 0.1 mm 2 mps 754 mmHg 87%
    06:00 +20°C° 0 mm 2 mps 754 mmHg 84%
    07:00 +21°C° 0 mm 2 mps 755 mmHg 81%
    08:00 +23°C° 0 mm 2 mps 755 mmHg 77%
    09:00 +25°C° 0 mm 3 mps 754 mmHg 72%
    10:00 +26°C° 0 mm 3 mps 754 mmHg 66%
    11:00 +28°C° 0 mm 4 mps 754 mmHg 60%
    12:00 +29°C° 0 mm 4 mps 754 mmHg 56%
    13:00 +30°C° 0 mm 4 mps 754 mmHg 53%
    14:00 +32°C° 0 mm 4 mps 753 mmHg 50%
    15:00 +30°C° 0 mm 4 mps 753 mmHg 53%
    16:00 +30°C° 0 mm 3 mps 752 mmHg 57%
    17:00 +29°C° 0 mm 3 mps 752 mmHg 60%
    18:00 +28°C° 0 mm 3 mps 752 mmHg 63%
    19:00 +26°C° 0 mm 3 mps 752 mmHg 66%
    20:00 +24°C° 0 mm 3 mps 752 mmHg 68%
    21:00 +24°C° 0 mm 3 mps 752 mmHg 69%
    22:00 +22°C° 0 mm 3 mps 752 mmHg 70%
    23:00 +21°C° 0 mm 3 mps 752 mmHg 70%

    Tomorrow, 22 August, Thursday

    Time Temperature Precipitation Wind Pressure Humidity
    00:00 +21°C° 0.1 mm 3 mps 752 mmHg 76%
    01:00 +20°C° 0.1 mm 4 mps 753 mmHg 82%
    02:00 +20°C° 0.1 mm 4 mps 753 mmHg 87%
    03:00 +19°C° 0.6 mm 4 mps 753 mmHg 89%
    04:00 +17°C° 0.6 mm 5 mps 753 mmHg 90%
    05:00 +16°C° 0.6 mm 5 mps 754 mmHg 92%
    06:00 +16°C° 0.1 mm 5 mps 754 mmHg 90%
    07:00 +16°C° 0.1 mm 5 mps 755 mmHg 88%
    08:00 +15°C° 0.1 mm 6 mps 755 mmHg 86%
    09:00 +16°C° 0 mm 6 mps 756 mmHg 81%
    10:00 +17°C° 0 mm 6 mps 756 mmHg 77%
    11:00 +19°C° 0 mm 6 mps 756 mmHg 73%
    12:00 +20°C° 0 mm 5 mps 756 mmHg 69%
    13:00 +21°C° 0 mm 5 mps 756 mmHg 65%
    14:00 +22°C° 0 mm 5 mps 756 mmHg 62%
    15:00 +21°C° 0 mm 5 mps 756 mmHg 64%
    16:00 +21°C° 0 mm 4 mps 756 mmHg 65%
    17:00 +21°C° 0 mm 4 mps 756 mmHg 67%
    18:00 +19°C° 0 mm 3 mps 757 mmHg 73%
    19:00 +18°C° 0 mm 3 mps 757 mmHg 79%
    20:00 +16°C° 0 mm 3 mps 757 mmHg 84%
    21:00 +16°C° 0 mm 3 mps 757 mmHg 84%
    22:00 +14°C° 0 mm 3 mps 758 mmHg 85%
    23:00 +14°C° 0 mm 3 mps 758 mmHg 85%

    Day after tomorrow, 23 August, Friday

    Time Temperature Precipitation Wind Pressure Humidity
    00:00 +14°C° 0 mm 3 mps 758 mmHg 85%
    01:00 +13°C° 0 mm 3 mps 758 mmHg 86%
    02:00 +14°C° 0 mm 2 mps 758 mmHg 86%
    03:00 +13°C° 0 mm 2 mps 758 mmHg 87%
    04:00 +13°C° 0 mm 2 mps 758 mmHg 87%
    05:00 +13°C° 0 mm 2 mps 758 mmHg 88%
    06:00 +14°C° 0 mm 2 mps 758 mmHg 84%
    07:00 +16°C° 0 mm 2 mps 758 mmHg 79%
    08:00 +17°C° 0 mm 2 mps 759 mmHg 75%
    09:00 +19°C° 0 mm 2 mps 758 mmHg 68%
    10:00 +20°C° 0 mm 2 mps 758 mmHg 61%
    11:00 +22°C° 0 mm 3 mps 758 mmHg 54%
    12:00 +24°C° 0 mm 3 mps 758 mmHg 51%
    13:00 +24°C° 0 mm 3 mps 758 mmHg 49%
    14:00 +25°C° 0 mm 3 mps 758 mmHg 46%
    15:00 +24°C° 0 mm 3 mps 758 mmHg 50%
    16:00 +24°C° 0 mm 3 mps 758 mmHg 54%
    17:00 +23°C° 0 mm 2 mps 758 mmHg 58%
    18:00 +20°C° 0 mm 2 mps 758 mmHg 64%
    19:00 +19°C° 0 mm 2 mps 758 mmHg 69%
    20:00 +17°C° 0 mm 2 mps 758 mmHg 74%
    21:00 +16°C° 0 mm 2 mps 758 mmHg 77%
    22:00 +15°C° 0 mm 1 mps 758 mmHg 79%
    23:00 +15°C° 0 mm 1 mps 758 mmHg 82%

    24 August, Saturday

    Time Temperature Precipitation Wind Pressure Humidity
    00:00 +14°C° 0 mm 1 mps 758 mmHg 83%
    01:00 +14°C° 0 mm 1 mps 758 mmHg 85%
    02:00 +14°C° 0 mm 1 mps 758 mmHg 86%
    03:00 +13°C° 0 mm 1 mps 758 mmHg 88%
    04:00 +13°C° 0 mm 1 mps 758 mmHg 89%
    05:00 +13°C° 0 mm 1 mps 758 mmHg 90%
    06:00 +14°C° 0 mm 1 mps 758 mmHg 83%
    07:00 +16°C° 0 mm 1 mps 758 mmHg 77%
    08:00 +19°C° 0 mm 1 mps 758 mmHg 71%
    09:00 +21°C° 0 mm 1 mps 758 mmHg 65%
    10:00 +22°C° 0 mm 1 mps 758 mmHg 59%
    11:00 +24°C° 0 mm 1 mps 758 mmHg 54%
    12:00 +24°C° 0 mm 1 mps 758 mmHg 51%
    13:00 +25°C° 0 mm 1 mps 758 mmHg 48%
    14:00 +25°C° 0 mm 1 mps 757 mmHg 45%
    15:00 +25°C° 0 mm 1 mps 757 mmHg 47%
    16:00 +25°C° 0 mm 1 mps 757 mmHg 49%
    17:00 +23°C° 0 mm 0 mps 756 mmHg 51%
    18:00 +20°C° 0 mm 0 mps 756 mmHg 56%
    19:00 +18°C° 0 mm 0 mps 756 mmHg 61%
    20:00 +16°C° 0 mm 0 mps 756 mmHg 66%
    21:00 +15°C° 0 mm 0 mps 756 mmHg 68%
    22:00 +15°C° 0 mm 0 mps 756 mmHg 70%
    23:00 +14°C° 0 mm 0 mps 756 mmHg 73%

    25 August, Sunday

    Time Temperature Precipitation Wind Pressure Humidity
    00:00 +14°C° 0 mm 0 mps 756 mmHg 74%
    01:00 +14°C° 0 mm 0 mps 756 mmHg 76%
    02:00 +13°C° 0 mm 0 mps 756 mmHg 78%
    03:00 +13°C° 0 mm 0 mps 756 mmHg 79%
    04:00 +13°C° 0 mm 0 mps 756 mmHg 80%
    05:00 +13°C° 0 mm 0 mps 756 mmHg 81%
    06:00 +15°C° 0 mm 1 mps 756 mmHg 76%
    07:00 +18°C° 0 mm 1 mps 756 mmHg 71%
    08:00 +20°C° 0 mm 1 mps 756 mmHg 67%
    09:00 +22°C° 0 mm 1 mps 756 mmHg 62%
    10:00 +23°C° 0 mm 1 mps 756 mmHg 58%
    11:00 +25°C° 0 mm 1 mps 756 mmHg 54%
    12:00 +25°C° 0 mm 1 mps 756 mmHg 51%
    13:00 +26°C° 0 mm 1 mps 756 mmHg 49%
    14:00 +26°C° 0 mm 2 mps 756 mmHg 46%
    15:00 +26°C° 0 mm 2 mps 756 mmHg 50%
    16:00 +25°C° 0 mm 2 mps 755 mmHg 54%
    17:00 +25°C° 0 mm 2 mps 755 mmHg 58%
    18:00 +23°C° 0 mm 2 mps 756 mmHg 66%
    19:00 +20°C° 0 mm 2 mps 756 mmHg 73%
    20:00 +18°C° 0 mm 2 mps 756 mmHg 81%
    21:00 +17°C° 0 mm 2 mps 756 mmHg 85%
    22:00 +17°C° 0 mm 2 mps 757 mmHg 89%
    23:00 +16°C° 0 mm 3 mps 757 mmHg 93%

    26 August, Monday

    Time Temperature Precipitation Wind Pressure Humidity
    00:00 +16°C° 0 mm 2 mps 757 mmHg 93%
    01:00 +15°C° 0 mm 2 mps 757 mmHg 93%
    02:00 +15°C° 0 mm 2 mps 757 mmHg 94%
    03:00 +14°C° 0 mm 2 mps 757 mmHg 94%
    04:00 +14°C° 0 mm 2 mps 757 mmHg 94%
    05:00 +14°C° 0 mm 2 mps 757 mmHg 95%
    06:00 +14°C° 0 mm 3 mps 758 mmHg 88%
    07:00 +16°C° 0 mm 3 mps 758 mmHg 82%
    08:00 +18°C° 0 mm 3 mps 758 mmHg 76%
    09:00 +19°C° 0 mm 3 mps 758 mmHg 70%
    10:00 +21°C° 0 mm 3 mps 758 mmHg 65%
    11:00 +22°C° 0 mm 3 mps 758 mmHg 60%
    12:00 +24°C° 0 mm 3 mps 758 mmHg 58%
    13:00 +25°C° 0 mm 3 mps 758 mmHg 56%
    14:00 +25°C° 0 mm 3 mps 758 mmHg 54%
    15:00 +25°C° 0 mm 3 mps 757 mmHg 56%
    16:00 +25°C° 0 mm 3 mps 757 mmHg 58%
    17:00 +24°C° 0 mm 2 mps 757 mmHg 60%
    18:00 +21°C° 0 mm 2 mps 757 mmHg 64%
    19:00 +20°C° 0 mm 2 mps 757 mmHg 68%
    20:00 +18°C° 0 mm 2 mps 757 mmHg 71%
    21:00 +17°C° 0 mm 2 mps 757 mmHg 71%
    22:00 +17°C° 0 mm 2 mps 757 mmHg 72%
    23:00 +16°C° 0 mm 2 mps 757 mmHg 72%
    Show more